User: anonymous   Login
Location: Onan Observatory
(44.8103°N, 93.9397°W)
Time: 13:49:00
(UTC-05:00)
Language:

Iridium 90 - Orbit

View from above orbital plane
View from above orbital plane
View from above satellite
View from above satellite

Ground track
Ground track

The orbit data is extracted from the following two-line orbital elements,

1 27373U 02005B   15245.59949797 +.00000007 +00000-0 -39627-5 0  9995
2 27373 086.4429 263.2280 0002592 082.2349 277.9146 14.42952725717031
Epoch (UTC): 02 September 2015 14:23:16
Eccentricity: 0.0002592
inclination: 86.4429°
perigee height: 747 km
apogee height: 750 km
right ascension of ascending node: 263.2280°
argument of perigee: 82.2349°
revolutions per day: 14.42952725
mean anomaly at epoch: 277.9146°
orbit number at epoch: 71703

The dashed part of the orbit path shows where the satellite is in the earth's shadow,  

DLR